Location: Driftpile
(55.3500°N, 115.7667°W)
Time: 07:55:58
(UTC+00:00)

N. Korean satellite - Pass Details

Date: 03 December 2021
Orbit: 447 x 490 km, 97.3° (Epoch: 26 January)

Event Time Altitude Azimuth Distance (km) Brightness Sun altitude
Rises 13:06:21 0° 15° (NNE) 2,482 10.3 -21.8°
Reaches altitude 10° 13:08:25 10° 18° (NNE) 1,598 9.3 -21.5°
Maximum altitude 13:11:50 71° 102° (ESE) 481 6.6 -21.0°
Drops below altitude 10° 13:15:12 10° 188° (S) 1,575 9.2 -20.6°
Sets 13:17:13 0° 191° (S) 2,441 10.1 -20.3°
